Location: Unspecified
(0.0000°N, 0.0000°E)
Time: 22:25:35
(UTC+00:00)

Hubble Space Telescope - Pass Details

Date: 07 June 2020
Orbit: 536 x 540 km, 28.5° (Epoch: 19 September)

Event Time Altitude Azimuth Distance (km) Brightness Sun altitude
Rises 20:26:02 0° 298° (WNW) 2,671 5.4 -33.5°
Reaches altitude 10° 20:28:18 10° 297° (WNW) 1,782 4.2 -34.0°
Enters shadow 20:29:13 16° 296° (WNW) 1,427 3.6 -34.2°
